Time,TemperatureF,DewpointF,PressureIn,WindDirection,WindDirectionDegrees,WindSpeedMPH,WindSpeedGustMPH,Humidity,HourlyPrecipIn,Conditions,Clouds,dailyrainin,SolarRadiationWatts/m^2,SoftwareType,DateUTC
2013-07-01 00:01:00,61.9,61.9,29.97,North,9,0.0,0.0,100,0.00,,,0.00,0,TxWx,2013-07-01 04:01:00,
2013-07-01 00:02:00,61.9,61.9,29.97,North,9,0.0,0.0,100,0.00,,,0.00,0,TxWx,2013-07-01 04:02:00,
2013-07-01 00:07:00,62.2,62.2,29.97,North,9,1.1,1.1,100,0.00,,,0.00,0,TxWx,2013-07-01 04:07:00,
2013-07-01 00:12:00,62.3,62.3,29.97,North,9,0.0,1.0,100,0.00,,,0.00,0,TxWx,2013-07-01 04:12:00,
2013-07-01 00:17:00,62.4,62.4,29.97,North,9,0.0,0.0,100,0.00,,,0.00,0,TxWx,2013-07-01 04:17:00,
2013-07-01 00:22:00,62.5,62.5,29.97,North,9,0.0,0.0,100,0.00,,,0.00,0,TxWx,2013-07-01 04:22:00,
2013-07-01 00:27:00,62.7,62.7,29.97,North,9,0.0,0.0,100,0.00,,,0.00,0,TxWx,2013-07-01 04:27:00,
2013-07-01 00:32:00,62.8,62.8,29.97,North,9,0.0,0.0,100,0.00,,,0.00,0,TxWx,2013-07-01 04:32:00,
2013-07-01 00:37:00,62.6,62.6,29.98,North,2,1.1,2.0,100,0.00,,,0.00,0,TxWx,2013-07-01 04:37:00,
2013-07-01 00:42:00,62.2,62.2,29.97,North,9,2.4,2.4,100,0.00,,,0.00,0,TxWx,2013-07-01 04:42:00,
2013-07-01 00:47:00,62.2,62.2,29.97,North,9,0.0,0.0,100,0.00,,,0.00,0,TxWx,2013-07-01 04:47:00,
2013-07-01 00:52:00,62.2,62.2,29.97,North,9,0.0,0.0,100,0.00,,,0.00,0,TxWx,2013-07-01 04:52:00,
2013-07-01 00:57:00,62.1,62.1,29.97,North,9,0.0,0.0,100,0.00,,,0.00,0,TxWx,2013-07-01 04:57:00,
2013-07-01 01:02:00,62.2,62.2,29.96,North,9,0.0,0.0,100,0.00,,,0.00,0,TxWx,2013-07-01 05:02:00,
2013-07-01 01:07:00,62.1,62.1,29.96,North,9,0.0,0.0,100,0.00,,,0.00,0,TxWx,2013-07-01 05:07:00,
2013-07-01 01:12:00,61.7,61.7,29.96,North,8,1.1,2.0,100,0.00,,,0.00,0,TxWx,2013-07-01 05:12:00,
2013-07-01 01:17:00,61.2,61.2,29.97,North,352,1.1,2.0,100,0.00,,,0.00,0,TxWx,2013-07-01 05:17:00,
2013-07-01 01:22:00,61.2,61.2,29.97,North,7,0.0,0.0,100,0.00,,,0.00,0,TxWx,2013-07-01 05:22:00,
2013-07-01 01:27:00,61.2,61.2,29.96,NNW,342,0.0,0.0,100,0.00,,,0.00,0,TxWx,2013-07-01 05:27:00,
2013-07-01 01:32:00,61.3,61.3,29.96,NNW,343,0.0,0.0,100,0.00,,,0.00,0,TxWx,2013-07-01 05:32:00,
2013-07-01 01:37:00,61.1,61.1,29.96,North,349,0.0,0.0,100,0.00,,,0.00,0,TxWx,2013-07-01 05:37:00,
2013-07-01 01:42:00,61.1,61.1,29.96,North,351,0.0,0.0,100,0.00,,,0.00,0,TxWx,2013-07-01 05:42:00,
2013-07-01 01:47:00,61.0,61.0,29.96,North,3,1.1,1.1,100,0.00,,,0.00,0,TxWx,2013-07-01 05:47:00,
2013-07-01 01:52:00,61.0,61.0,29.96,North,4,1.1,1.1,100,0.00,,,0.00,0,TxWx,2013-07-01 05:52:00,
2013-07-01 01:57:00,61.1,61.1,29.96,North,3,0.0,0.0,100,0.00,,,0.00,0,TxWx,2013-07-01 05:57:00,
2013-07-01 02:02:00,61.0,61.0,29.95,North,3,0.0,0.0,100,0.00,,,0.00,0,TxWx,2013-07-01 06:02:00,
2013-07-01 02:07:00,61.1,61.1,29.96,North,9,0.0,0.0,100,0.00,,,0.00,0,TxWx,2013-07-01 06:07:00,
2013-07-01 02:12:00,61.3,61.3,29.96,North,8,0.0,0.0,100,0.00,,,0.00,0,TxWx,2013-07-01 06:12:00,
2013-07-01 02:17:00,61.1,61.1,29.96,NNE,16,1.1,1.1,100,0.00,,,0.00,0,TxWx,2013-07-01 06:17:00,
2013-07-01 02:22:00,61.0,61.0,29.96,NNE,22,1.1,1.1,100,0.00,,,0.00,0,TxWx,2013-07-01 06:22:00,
2013-07-01 02:27:00,61.0,61.0,29.96,NNE,12,1.1,2.0,100,0.00,,,0.00,0,TxWx,2013-07-01 06:27:00,
2013-07-01 02:32:00,61.1,61.1,29.97,NNE,16,0.0,1.0,100,0.00,,,0.00,0,TxWx,2013-07-01 06:32:00,
2013-07-01 02:37:00,61.0,61.0,29.97,NNE,17,1.1,2.0,100,0.00,,,0.01,0,TxWx,2013-07-01 06:37:00,
2013-07-01 02:42:00,61.0,61.0,29.96,North,10,0.0,1.0,100,0.00,,,0.01,0,TxWx,2013-07-01 06:42:00,
2013-07-01 02:47:00,60.8,60.8,29.97,NNE,26,0.0,1.0,100,0.00,,,0.01,0,TxWx,2013-07-01 06:47:00,
2013-07-01 02:52:00,60.7,60.7,29.97,North,8,0.0,1.0,100,0.00,,,0.02,0,TxWx,2013-07-01 06:52:00,
2013-07-01 02:57:00,60.8,60.8,29.97,North,8,0.0,0.0,100,0.00,,,0.03,0,TxWx,2013-07-01 06:57:00,
2013-07-01 03:02:00,60.8,60.8,29.97,North,9,0.0,0.0,100,0.00,,,0.03,0,TxWx,2013-07-01 07:02:00,
2013-07-01 03:07:00,60.7,60.7,29.97,North,9,0.0,0.0,100,0.00,,,0.04,0,TxWx,2013-07-01 07:07:00,
2013-07-01 03:12:00,60.6,60.6,29.97,West,274,0.0,0.0,100,0.00,,,0.05,0,TxWx,2013-07-01 07:12:00,
2013-07-01 03:17:00,60.6,60.6,29.97,North,359,0.0,0.0,100,0.00,,,0.05,0,TxWx,2013-07-01 07:17:00,
2013-07-01 03:22:00,60.6,60.6,29.96,NNW,334,0.0,0.0,100,0.00,,,0.05,0,TxWx,2013-07-01 07:22:00,
2013-07-01 03:27:00,60.6,60.6,29.96,NNW,345,0.0,0.0,100,0.00,,,0.06,0,TxWx,2013-07-01 07:27:00,
2013-07-01 03:32:00,60.4,60.4,29.96,WNW,286,0.0,0.0,100,0.00,,,0.07,0,TxWx,2013-07-01 07:32:00,
2013-07-01 03:37:00,60.4,60.4,29.96,North,8,0.0,0.0,100,0.00,,,0.07,0,TxWx,2013-07-01 07:37:00,
2013-07-01 03:42:00,60.5,60.5,29.97,North,9,0.0,0.0,100,0.00,,,0.07,0,TxWx,2013-07-01 07:42:00,
2013-07-01 03:47:00,60.1,60.1,29.97,West,276,2.4,2.4,100,0.00,,,0.08,0,TxWx,2013-07-01 07:47:00,
2013-07-01 03:52:00,59.9,59.9,29.97,East,96,1.1,1.1,100,0.00,,,0.09,0,TxWx,2013-07-01 07:52:00,
2013-07-01 03:57:00,60.1,60.1,29.96,North,8,0.0,0.0,100,0.00,,,0.09,0,TxWx,2013-07-01 07:57:00,
2013-07-01 04:02:00,59.8,59.8,29.96,NE,42,6.1,6.1,100,0.00,,,0.09,0,TxWx,2013-07-01 08:02:00,
2013-07-01 04:07:00,60.0,60.0,29.97,NNE,18,1.1,1.1,100,0.00,,,0.10,0,TxWx,2013-07-01 08:07:00,
2013-07-01 04:12:00,59.9,59.9,29.96,NW,315,1.1,2.0,100,0.00,,,0.11,0,TxWx,2013-07-01 08:12:00,
2013-07-01 04:17:00,59.8,59.8,29.96,NE,41,0.0,0.0,100,0.00,,,0.11,0,TxWx,2013-07-01 08:17:00,
2013-07-01 04:22:00,59.8,59.8,29.96,NE,41,0.0,0.0,100,0.00,,,0.11,0,TxWx,2013-07-01 08:22:00,
2013-07-01 04:27:00,59.7,59.7,29.96,NE,41,0.0,0.0,100,0.00,,,0.12,0,TxWx,2013-07-01 08:27:00,
2013-07-01 04:32:00,59.8,59.8,29.96,NE,41,0.0,0.0,100,0.00,,,0.12,0,TxWx,2013-07-01 08:32:00,
2013-07-01 04:37:00,59.8,59.8,29.96,NE,41,0.0,0.0,100,0.00,,,0.13,0,TxWx,2013-07-01 08:37:00,
2013-07-01 04:42:00,59.8,59.8,29.96,NE,41,0.0,0.0,100,0.00,,,0.13,0,TxWx,2013-07-01 08:42:00,
2013-07-01 04:47:00,59.7,59.7,29.96,NE,41,0.0,1.0,100,0.00,,,0.13,0,TxWx,2013-07-01 08:47:00,
2013-07-01 04:52:00,59.6,59.6,29.96,NE,41,0.0,0.0,100,0.00,,,0.14,0,TxWx,2013-07-01 08:52:00,
2013-07-01 04:57:00,59.4,59.4,29.96,North,9,0.0,0.0,100,0.00,,,0.14,0,TxWx,2013-07-01 08:57:00,
2013-07-01 05:02:00,59.4,59.4,29.96,North,9,0.0,0.0,100,0.00,,,0.15,0,TxWx,2013-07-01 09:02:00,
2013-07-01 05:07:00,59.3,59.3,29.96,North,9,0.0,0.0,100,0.00,,,0.15,0,TxWx,2013-07-01 09:07:00,
2013-07-01 05:12:00,59.1,59.1,29.97,North,9,0.0,0.0,100,0.00,,,0.15,0,TxWx,2013-07-01 09:12:00,
2013-07-01 05:17:00,59.1,59.1,29.97,North,9,0.0,1.0,100,0.00,,,0.15,0,TxWx,2013-07-01 09:17:00,
2013-07-01 05:22:00,59.0,59.0,29.98,North,9,0.0,1.0,100,0.00,,,0.15,0,TxWx,2013-07-01 09:22:00,
2013-07-01 05:27:00,59.2,59.2,29.98,North,9,0.0,0.0,100,0.00,,,0.16,0,TxWx,2013-07-01 09:27:00,
2013-07-01 05:32:00,59.3,59.3,29.98,North,9,0.0,0.0,100,0.00,,,0.16,0,TxWx,2013-07-01 09:32:00,
2013-07-01 05:37:00,59.3,59.3,29.98,North,0,1.1,1.1,100,0.00,,,0.16,0,TxWx,2013-07-01 09:37:00,
2013-07-01 05:42:00,59.4,59.4,29.98,NNW,329,0.0,0.0,100,0.00,,,0.16,0,TxWx,2013-07-01 09:42:00,
2013-07-01 05:47:00,59.4,59.4,29.98,North,354,0.0,0.0,100,0.00,,,0.16,0,TxWx,2013-07-01 09:47:00,
2013-07-01 05:52:00,59.4,59.4,29.99,North,8,0.0,0.0,100,0.00,,,0.17,0,TxWx,2013-07-01 09:52:00,
2013-07-01 05:57:00,59.4,59.4,29.99,North,8,0.0,0.0,100,0.00,,,0.17,0,TxWx,2013-07-01 09:57:00,
2013-07-01 06:02:00,59.4,59.4,29.99,North,8,0.0,0.0,100,0.00,,,0.17,0,TxWx,2013-07-01 10:02:00,
2013-07-01 06:07:00,59.4,59.4,29.99,North,8,0.0,0.0,100,0.00,,,0.17,0,TxWx,2013-07-01 10:07:00,
2013-07-01 06:12:00,59.4,59.4,29.99,North,8,0.0,0.0,100,0.00,,,0.17,0,TxWx,2013-07-01 10:12:00,
2013-07-01 06:17:00,59.3,59.3,29.99,North,8,0.0,0.0,100,0.00,,,0.17,0,TxWx,2013-07-01 10:17:00,
2013-07-01 06:22:00,59.0,59.0,29.99,North,8,0.0,0.0,100,0.00,,,0.17,1,TxWx,2013-07-01 10:22:00,
2013-07-01 06:27:00,58.8,58.8,29.99,North,8,0.0,0.0,100,0.00,,,0.17,1,TxWx,2013-07-01 10:27:00,
2013-07-01 06:32:00,58.8,58.8,29.99,North,8,0.0,0.0,100,0.00,,,0.17,1,TxWx,2013-07-01 10:32:00,
2013-07-01 06:38:00,58.9,58.9,29.99,North,7,0.0,0.0,100,0.00,,,0.17,2,TxWx,2013-07-01 10:38:00,
2013-07-01 06:43:00,58.9,58.9,29.99,North,6,0.0,0.0,100,0.00,,,0.17,2,TxWx,2013-07-01 10:43:00,
2013-07-01 06:47:00,58.9,58.9,30.00,North,7,0.0,0.0,100,0.00,,,0.17,3,TxWx,2013-07-01 10:47:00,
2013-07-01 06:52:00,58.9,58.9,30.00,North,7,0.0,0.0,100,0.00,,,0.17,5,TxWx,2013-07-01 10:52:00,
2013-07-01 06:57:00,58.8,58.8,30.00,North,8,0.0,0.0,100,0.00,,,0.17,21,TxWx,2013-07-01 10:57:00,
2013-07-01 07:02:00,58.7,58.7,30.00,North,8,0.0,0.0,100,0.00,,,0.17,17,TxWx,2013-07-01 11:02:00,
2013-07-01 07:07:00,58.8,58.8,30.00,North,6,0.0,0.0,100,0.00,,,0.17,14,TxWx,2013-07-01 11:07:00,
2013-07-01 07:13:00,58.9,58.9,30.00,North,6,0.0,0.0,100,0.00,,,0.17,8,TxWx,2013-07-01 11:13:00,
2013-07-01 07:18:00,58.9,58.9,30.01,North,5,0.0,0.0,100,0.00,,,0.17,5,TxWx,2013-07-01 11:18:00,
2013-07-01 07:23:00,58.9,58.9,30.01,North,6,0.0,0.0,100,0.00,,,0.17,9,TxWx,2013-07-01 11:23:00,
2013-07-01 07:28:00,58.9,58.9,30.01,North,5,0.0,0.0,100,0.00,,,0.17,12,TxWx,2013-07-01 11:28:00,
2013-07-01 07:33:00,59.1,59.1,30.01,North,6,0.0,0.0,100,0.00,,,0.17,16,TxWx,2013-07-01 11:33:00,
2013-07-01 07:38:00,59.1,59.1,30.01,North,6,0.0,0.0,100,0.00,,,0.17,27,TxWx,2013-07-01 11:38:00,
2013-07-01 07:43:00,59.3,59.3,30.01,North,5,0.0,0.0,100,0.00,,,0.17,29,TxWx,2013-07-01 11:43:00,
2013-07-01 07:48:00,59.2,59.2,30.01,North,5,0.0,0.0,100,0.00,,,0.17,35,TxWx,2013-07-01 11:48:00,
2013-07-01 07:53:00,59.2,59.2,30.01,North,5,0.0,0.0,100,0.00,,,0.17,57,TxWx,2013-07-01 11:53:00,
2013-07-01 07:58:00,59.3,59.3,30.01,North,6,0.0,0.0,100,0.00,,,0.17,42,TxWx,2013-07-01 11:58:00,
2013-07-01 08:03:00,59.5,59.5,30.01,North,6,0.0,0.0,100,0.00,,,0.17,38,TxWx,2013-07-01 12:03:00,
2013-07-01 08:08:00,59.6,59.6,30.01,North,6,0.0,0.0,100,0.00,,,0.17,21,TxWx,2013-07-01 12:08:00,
2013-07-01 08:13:00,59.7,59.7,30.01,North,8,0.0,0.0,100,0.00,,,0.17,23,TxWx,2013-07-01 12:13:00,
2013-07-01 08:18:00,59.9,59.9,30.01,North,8,0.0,0.0,100,0.00,,,0.17,22,TxWx,2013-07-01 12:18:00,
2013-07-01 08:23:00,59.9,59.9,30.01,North,8,0.0,0.0,100,0.00,,,0.17,27,TxWx,2013-07-01 12:23:00,
2013-07-01 08:28:00,60.0,60.0,30.01,North,8,0.0,0.0,100,0.00,,,0.17,13,TxWx,2013-07-01 12:28:00,
2013-07-01 08:33:00,60.0,60.0,30.01,North,8,0.0,0.0,100,0.00,,,0.17,19,TxWx,2013-07-01 12:33:00,
2013-07-01 08:38:00,60.0,60.0,30.01,North,8,0.0,0.0,100,0.00,,,0.17,23,TxWx,2013-07-01 12:38:00,
2013-07-01 08:43:00,60.0,60.0,30.01,North,8,0.0,0.0,100,0.00,,,0.17,29,TxWx,2013-07-01 12:43:00,
2013-07-01 08:48:00,60.1,60.1,30.01,NW,326,0.0,0.0,100,0.00,,,0.17,63,TxWx,2013-07-01 12:48:00,
2013-07-01 08:53:00,60.3,60.3,30.01,NNW,344,0.0,0.0,100,0.00,,,0.17,30,TxWx,2013-07-01 12:53:00,
2013-07-01 08:58:00,60.4,60.4,30.01,NNW,346,0.0,0.0,100,0.00,,,0.17,30,TxWx,2013-07-01 12:58:00,
2013-07-01 09:03:00,60.5,60.5,30.01,North,355,0.0,0.0,100,0.00,,,0.17,32,TxWx,2013-07-01 13:03:00,
2013-07-01 09:08:00,60.7,60.7,30.01,North,8,0.0,0.0,100,0.00,,,0.17,34,TxWx,2013-07-01 13:08:00,
2013-07-01 09:13:00,61.0,61.0,30.01,North,8,0.0,0.0,100,0.00,,,0.17,54,TxWx,2013-07-01 13:13:00,
2013-07-01 09:18:00,61.6,61.6,30.01,North,8,0.0,0.0,100,0.00,,,0.17,75,TxWx,2013-07-01 13:18:00,
2013-07-01 09:23:00,62.0,62.0,30.01,North,7,0.0,0.0,100,0.00,,,0.17,105,TxWx,2013-07-01 13:23:00,
2013-07-01 09:28:00,62.3,62.3,30.02,North,9,0.0,0.0,100,0.00,,,0.17,111,TxWx,2013-07-01 13:28:00,
2013-07-01 09:33:00,62.4,62.4,30.02,North,9,0.0,0.0,100,0.00,,,0.17,102,TxWx,2013-07-01 13:33:00,
2013-07-01 09:38:00,62.5,62.5,30.02,North,9,0.0,0.0,100,0.00,,,0.17,61,TxWx,2013-07-01 13:38:00,
2013-07-01 09:43:00,62.2,62.2,30.02,North,9,0.0,0.0,100,0.00,,,0.17,59,TxWx,2013-07-01 13:43:00,
2013-07-01 09:48:00,62.3,62.3,30.02,NNE,33,0.0,0.0,100,0.00,,,0.17,78,TxWx,2013-07-01 13:48:00,
2013-07-01 09:53:00,62.5,62.5,30.02,NE,49,1.1,1.1,100,0.00,,,0.17,55,TxWx,2013-07-01 13:53:00,
2013-07-01 09:58:00,62.6,62.6,30.02,NE,53,1.1,2.0,100,0.00,,,0.17,63,TxWx,2013-07-01 13:58:00,
2013-07-01 10:03:00,62.9,62.9,30.02,SSE,147,1.1,2.0,100,0.00,,,0.17,65,TxWx,2013-07-01 14:03:00,
2013-07-01 10:08:00,63.1,63.1,30.02,SSE,147,1.1,1.1,100,0.00,,,0.17,47,TxWx,2013-07-01 14:08:00,
2013-07-01 10:13:00,63.3,63.3,30.02,SE,143,1.1,2.0,100,0.00,,,0.17,63,TxWx,2013-07-01 14:13:00,
2013-07-01 10:18:00,63.3,63.3,30.02,SE,144,1.1,1.1,100,0.00,,,0.17,34,TxWx,2013-07-01 14:18:00,
2013-07-01 10:23:00,63.2,63.2,30.02,SE,143,1.1,1.1,100,0.00,,,0.17,52,TxWx,2013-07-01 14:23:00,
2013-07-01 10:28:00,63.3,63.3,30.02,SE,139,1.1,1.1,100,0.00,,,0.17,112,TxWx,2013-07-01 14:28:00,
2013-07-01 10:33:00,63.5,63.5,30.02,ENE,65,1.1,2.0,100,0.00,,,0.17,286,TxWx,2013-07-01 14:33:00,
2013-07-01 10:38:00,64.0,64.0,30.02,East,99,1.1,2.0,100,0.00,,,0.17,46,TxWx,2013-07-01 14:38:00,
2013-07-01 10:43:00,64.2,64.2,30.02,SE,138,1.1,1.1,100,0.00,,,0.17,76,TxWx,2013-07-01 14:43:00,
2013-07-01 10:48:00,64.5,64.5,30.02,SSE,164,1.1,1.1,100,0.00,,,0.17,38,TxWx,2013-07-01 14:48:00,
2013-07-01 10:53:00,64.5,64.5,30.02,SSE,167,1.1,1.1,100,0.00,,,0.17,74,TxWx,2013-07-01 14:53:00,
2013-07-01 10:58:00,64.7,64.7,30.02,SSE,167,1.1,1.1,100,0.00,,,0.17,73,TxWx,2013-07-01 14:58:00,
2013-07-01 11:03:00,64.9,64.9,30.02,SSE,167,1.1,2.0,100,0.00,,,0.17,73,TxWx,2013-07-01 15:03:00,
2013-07-01 11:08:00,65.0,65.0,30.03,South,169,1.1,1.1,100,0.00,,,0.17,49,TxWx,2013-07-01 15:08:00,
2013-07-01 11:13:00,65.2,65.2,30.03,SSE,165,1.1,2.0,100,0.00,,,0.17,436,TxWx,2013-07-01 15:13:00,
2013-07-01 11:18:00,65.5,65.5,30.03,SSE,165,0.0,1.0,100,0.00,,,0.17,113,TxWx,2013-07-01 15:18:00,
2013-07-01 11:23:00,65.7,65.7,30.03,SSE,165,0.0,1.0,100,0.00,,,0.17,527,TxWx,2013-07-01 15:23:00,
2013-07-01 11:28:00,66.2,66.2,30.03,SSE,165,1.1,1.1,100,0.00,,,0.17,165,TxWx,2013-07-01 15:28:00,
2013-07-01 11:33:00,66.3,66.3,30.03,SSE,165,1.1,1.1,100,0.00,,,0.17,77,TxWx,2013-07-01 15:33:00,
2013-07-01 11:38:00,66.3,66.3,30.03,SSE,164,1.1,1.1,100,0.00,,,0.17,54,TxWx,2013-07-01 15:38:00,
2013-07-01 11:43:00,66.0,66.0,30.03,SSE,163,0.0,1.0,100,0.00,,,0.17,104,TxWx,2013-07-01 15:43:00,
2013-07-01 11:48:00,66.1,66.1,30.03,SSE,164,1.1,1.1,100,0.00,,,0.17,383,TxWx,2013-07-01 15:48:00,
2013-07-01 11:53:00,66.6,66.6,30.03,SSE,163,1.1,1.1,100,0.00,,,0.17,76,TxWx,2013-07-01 15:53:00,
2013-07-01 11:58:00,66.8,66.8,30.03,SSE,163,1.1,0.0,100,0.00,,,0.17,124,TxWx,2013-07-01 15:58:00,
2013-07-01 12:03:00,66.7,66.7,30.03,SSE,163,0.0,1.0,100,0.00,,,0.17,75,TxWx,2013-07-01 16:03:00,
2013-07-01 12:08:00,66.7,66.7,30.03,SSE,153,1.1,1.1,100,0.00,,,0.17,105,TxWx,2013-07-01 16:08:00,
2013-07-01 12:13:00,66.6,66.6,30.03,SE,134,1.1,1.1,100,0.00,,,0.17,655,TxWx,2013-07-01 16:13:00,
2013-07-01 12:18:00,67.5,67.5,30.03,ESE,102,1.1,1.1,100,0.00,,,0.17,67,TxWx,2013-07-01 16:18:00,
2013-07-01 12:23:00,68.1,68.0,30.02,East,101,1.1,1.1,99,0.00,,,0.17,607,TxWx,2013-07-01 16:23:00,
2013-07-01 12:29:00,68.6,68.1,30.02,ESE,109,2.4,2.4,98,0.00,,,0.17,629,TxWx,2013-07-01 16:29:00,
2013-07-01 12:34:00,69.4,67.5,30.02,ESE,116,1.1,1.1,93,0.00,,,0.17,683,TxWx,2013-07-01 16:34:00,
2013-07-01 12:39:00,69.6,66.2,30.02,ESE,108,2.4,2.4,88,0.00,,,0.17,92,TxWx,2013-07-01 16:39:00,
2013-07-01 12:44:00,69.5,67.0,30.02,SE,138,2.4,2.4,91,0.00,,,0.17,119,TxWx,2013-07-01 16:44:00,
2013-07-01 12:49:00,68.8,65.9,30.02,SE,131,2.4,2.4,90,0.00,,,0.17,128,TxWx,2013-07-01 16:49:00,
2013-07-01 12:54:00,68.8,66.3,30.02,SE,124,0.0,1.0,91,0.00,,,0.17,538,TxWx,2013-07-01 16:54:00,
2013-07-01 12:59:00,69.0,66.1,30.01,ESE,115,1.1,1.1,90,0.00,,,0.17,714,TxWx,2013-07-01 16:59:00,
2013-07-01 13:04:00,69.8,67.3,30.01,ESE,116,1.1,1.1,92,0.00,,,0.17,768,TxWx,2013-07-01 17:04:00,
2013-07-01 13:09:00,70.5,68.8,30.01,ENE,76,1.1,0.0,94,0.00,,,0.17,127,TxWx,2013-07-01 17:09:00,
2013-07-01 13:15:00,70.5,68.4,30.01,East,96,1.1,1.1,93,0.00,,,0.17,114,TxWx,2013-07-01 17:15:00,
2013-07-01 13:20:00,70.2,68.8,30.01,East,96,1.1,1.1,95,0.00,,,0.17,823,TxWx,2013-07-01 17:20:00,
2013-07-01 13:25:00,70.2,67.9,30.01,ESE,115,2.4,2.4,92,0.00,,,0.17,135,TxWx,2013-07-01 17:25:00,
2013-07-01 13:30:00,69.8,67.5,30.01,ESE,114,1.1,1.1,92,0.00,,,0.17,118,TxWx,2013-07-01 17:30:00,
2013-07-01 13:35:00,69.3,67.3,30.01,ESE,113,1.1,1.1,93,0.00,,,0.17,112,TxWx,2013-07-01 17:35:00,
2013-07-01 13:40:00,68.8,67.3,30.01,ESE,113,1.1,1.1,95,0.00,,,0.17,197,TxWx,2013-07-01 17:40:00,
2013-07-01 13:45:00,69.3,68.5,30.00,ESE,118,0.0,1.0,97,0.00,,,0.17,855,TxWx,2013-07-01 17:45:00,
2013-07-01 13:50:00,70.3,68.3,30.00,SE,133,0.0,1.0,93,0.00,,,0.17,127,TxWx,2013-07-01 17:50:00,
2013-07-01 13:55:00,70.9,68.2,30.00,SE,127,1.1,1.1,91,0.00,,,0.17,153,TxWx,2013-07-01 17:55:00,
2013-07-01 14:00:00,70.9,69.2,30.00,SE,128,1.1,1.1,94,0.00,,,0.17,902,TxWx,2013-07-01 18:00:00,
2013-07-01 14:05:00,70.6,68.4,30.00,ESE,122,1.1,1.1,92,0.00,,,0.17,117,TxWx,2013-07-01 18:05:00,
2013-07-01 14:10:00,70.5,68.9,30.00,ESE,122,1.1,1.1,94,0.00,,,0.17,628,TxWx,2013-07-01 18:10:00,
2013-07-01 14:15:00,71.3,69.2,30.00,ESE,123,0.0,1.0,93,0.00,,,0.17,461,TxWx,2013-07-01 18:15:00,
2013-07-01 14:20:00,72.1,67.3,30.00,WNW,299,1.1,1.1,85,0.00,,,0.17,128,TxWx,2013-07-01 18:20:00,
2013-07-01 14:25:00,72.4,68.6,30.00,SE,127,1.1,2.0,87,0.00,,,0.17,167,TxWx,2013-07-01 18:25:00,
2013-07-01 14:30:00,72.1,69.2,30.00,ESE,120,0.0,1.0,90,0.00,,,0.17,194,TxWx,2013-07-01 18:30:00,
2013-07-01 14:35:00,71.7,69.4,30.00,ESE,113,1.1,1.1,92,0.00,,,0.17,161,TxWx,2013-07-01 18:35:00,
2013-07-01 14:40:00,71.3,69.1,30.00,SSW,196,0.0,1.0,92,0.00,,,0.17,192,TxWx,2013-07-01 18:40:00,
2013-07-01 14:45:00,71.3,69.3,30.00,NNE,15,1.1,1.1,93,0.00,,,0.17,129,TxWx,2013-07-01 18:45:00,
2013-07-01 14:50:00,71.2,69.5,30.00,SE,125,1.1,1.1,94,0.00,,,0.17,161,TxWx,2013-07-01 18:50:00,
2013-07-01 14:55:00,71.0,69.6,29.99,SE,125,1.1,1.1,95,0.00,,,0.17,234,TxWx,2013-07-01 18:55:00,
2013-07-01 15:00:00,71.2,69.5,29.99,ESE,113,0.0,1.0,94,0.00,,,0.17,174,TxWx,2013-07-01 19:00:00,
2013-07-01 15:05:00,71.3,69.6,30.00,ESE,113,1.1,1.1,94,0.00,,,0.17,101,TxWx,2013-07-01 19:05:00,
2013-07-01 15:10:00,71.1,69.4,30.00,ESE,112,1.1,1.1,94,0.00,,,0.17,115,TxWx,2013-07-01 19:10:00,
2013-07-01 15:15:00,70.9,69.1,30.00,ESE,111,0.0,0.0,94,0.00,,,0.17,105,TxWx,2013-07-01 19:15:00,
2013-07-01 15:20:00,70.6,68.7,30.00,ESE,110,0.0,0.0,93,0.00,,,0.17,100,TxWx,2013-07-01 19:20:00,
2013-07-01 15:25:00,70.1,68.4,30.00,ESE,110,0.0,0.0,94,0.00,,,0.17,133,TxWx,2013-07-01 19:25:00,
2013-07-01 15:30:00,70.0,68.5,30.00,ESE,108,1.1,1.1,94,0.00,,,0.17,175,TxWx,2013-07-01 19:30:00,
2013-07-01 15:35:00,70.1,68.9,30.00,ENE,72,1.1,1.1,96,0.00,,,0.17,176,TxWx,2013-07-01 19:35:00,
2013-07-01 15:40:00,70.1,69.2,30.00,East,91,1.1,1.1,97,0.00,,,0.17,143,TxWx,2013-07-01 19:40:00,
2013-07-01 15:46:00,69.9,67.3,30.00,East,84,2.4,2.4,91,0.00,,,0.17,151,TxWx,2013-07-01 19:46:00,
2013-07-01 15:51:00,70.3,69.0,30.01,North,351,0.0,0.0,95,0.00,,,0.17,123,TxWx,2013-07-01 19:51:00,
2013-07-01 15:56:00,70.2,67.8,30.01,ENE,75,0.0,0.0,92,0.00,,,0.17,165,TxWx,2013-07-01 19:56:00,
2013-07-01 16:01:00,70.3,68.7,30.01,ENE,72,0.0,0.0,94,0.00,,,0.17,208,TxWx,2013-07-01 20:01:00,
2013-07-01 16:06:00,70.3,68.5,30.00,North,11,2.4,2.4,93,0.00,,,0.17,469,TxWx,2013-07-01 20:06:00,
2013-07-01 16:11:00,71.2,69.2,30.00,ENE,66,1.1,2.0,93,0.00,,,0.17,446,TxWx,2013-07-01 20:11:00,
2013-07-01 16:16:00,71.8,69.5,29.99,NE,34,1.1,1.1,92,0.00,,,0.17,372,TxWx,2013-07-01 20:16:00,
2013-07-01 16:21:00,72.6,69.8,29.99,NW,311,2.4,3.0,90,0.00,,,0.17,276,TxWx,2013-07-01 20:21:00,
2013-07-01 16:26:00,73.1,68.7,29.99,NW,309,2.4,0.0,86,0.00,,,0.17,441,TxWx,2013-07-01 20:26:00,
2013-07-01 16:31:00,73.1,67.5,29.99,North,8,2.4,2.4,82,0.00,,,0.17,281,TxWx,2013-07-01 20:31:00,
2013-07-01 16:36:00,73.7,69.2,29.99,North,350,1.1,1.1,85,0.00,,,0.17,282,TxWx,2013-07-01 20:36:00,
2013-07-01 16:41:00,73.5,68.6,29.99,NNE,30,2.4,2.4,84,0.00,,,0.17,179,TxWx,2013-07-01 20:41:00,
2013-07-01 16:46:00,73.5,69.3,29.99,ESE,107,0.0,1.0,86,0.00,,,0.17,288,TxWx,2013-07-01 20:46:00,
2013-07-01 16:51:00,73.4,69.2,29.99,North,8,1.1,1.1,86,0.00,,,0.17,139,TxWx,2013-07-01 20:51:00,
2013-07-01 16:56:00,72.5,69.2,29.99,East,86,0.0,1.0,89,0.00,,,0.17,93,TxWx,2013-07-01 20:56:00,
2013-07-01 17:01:00,72.1,69.0,29.99,ESE,108,1.1,1.1,89,0.00,,,0.17,96,TxWx,2013-07-01 21:01:00,
2013-07-01 17:06:00,71.6,69.6,30.00,ESE,102,1.1,1.1,93,0.00,,,0.17,114,TxWx,2013-07-01 21:06:00,
2013-07-01 17:11:00,71.1,68.5,29.99,WSW,247,1.1,1.1,91,0.00,,,0.17,120,TxWx,2013-07-01 21:11:00,
2013-07-01 17:16:00,70.4,68.4,29.99,SSW,210,2.4,2.4,93,0.00,,,0.17,121,TxWx,2013-07-01 21:16:00,
2013-07-01 17:21:00,70.3,68.1,30.00,WSW,242,0.0,1.0,93,0.00,,,0.17,95,TxWx,2013-07-01 21:21:00,
2013-07-01 17:28:00,70.1,68.2,30.00,WNW,283,1.1,1.1,93,0.00,,,0.17,75,TxWx,2013-07-01 21:28:00,
2013-07-01 17:33:00,69.7,67.3,30.01,West,260,0.0,1.0,91,0.00,,,0.17,55,TxWx,2013-07-01 21:33:00,
2013-07-01 17:38:00,69.3,66.5,30.01,SSE,156,1.1,1.1,90,0.00,,,0.17,35,TxWx,2013-07-01 21:38:00,
2013-07-01 17:43:00,69.1,66.7,30.01,SSE,155,1.1,1.1,92,0.00,,,0.17,34,TxWx,2013-07-01 21:43:00,
2013-07-01 17:48:00,68.7,65.7,30.01,NNE,30,2.4,2.4,90,0.00,,,0.17,30,TxWx,2013-07-01 21:48:00,
2013-07-01 17:53:00,68.2,66.0,30.01,SSW,207,1.1,1.1,92,0.00,,,0.17,19,TxWx,2013-07-01 21:53:00,
2013-07-01 17:58:00,68.1,65.5,30.01,ENE,62,0.0,1.0,91,0.00,,,0.17,25,TxWx,2013-07-01 21:58:00,
2013-07-01 18:03:00,67.8,65.9,30.02,North,356,3.5,5.0,93,0.00,,,0.17,13,TxWx,2013-07-01 22:03:00,
2013-07-01 18:08:00,67.2,64.5,30.02,WNW,294,1.1,1.1,90,0.00,,,0.17,12,TxWx,2013-07-01 22:08:00,
2013-07-01 18:13:00,66.8,64.5,30.03,WSW,242,1.1,1.1,92,0.00,,,0.17,7,TxWx,2013-07-01 22:13:00,
2013-07-01 18:18:00,66.1,64.8,30.03,WSW,238,2.4,2.4,95,0.00,,,0.17,6,TxWx,2013-07-01 22:18:00,
2013-07-01 18:23:00,65.4,64.8,30.03,ENE,70,2.4,2.4,98,0.00,,,0.18,5,TxWx,2013-07-01 22:23:00,
2013-07-01 18:28:00,64.5,64.5,30.04,South,189,1.1,1.1,99,0.00,,,0.19,5,TxWx,2013-07-01 22:28:00,
2013-07-01 18:33:00,63.7,63.7,30.04,SSE,152,2.4,2.4,100,0.00,,,0.19,4,TxWx,2013-07-01 22:33:00,
2013-07-01 18:38:00,63.3,63.3,30.04,SW,226,1.1,1.1,100,0.00,,,0.20,3,TxWx,2013-07-01 22:38:00,
2013-07-01 18:43:00,62.9,62.9,30.04,SW,222,0.0,1.0,100,0.00,,,0.20,3,TxWx,2013-07-01 22:43:00,
2013-07-01 18:48:00,62.6,62.6,30.04,SW,222,1.1,1.1,100,0.00,,,0.21,3,TxWx,2013-07-01 22:48:00,
2013-07-01 18:53:00,62.5,62.5,30.04,SW,222,1.1,1.1,100,0.00,,,0.21,3,TxWx,2013-07-01 22:53:00,
2013-07-01 18:58:00,62.5,62.5,30.05,SW,222,0.0,0.0,100,0.00,,,0.22,3,TxWx,2013-07-01 22:58:00,
2013-07-01 19:03:00,62.5,62.5,30.05,East,93,0.0,0.0,100,0.00,,,0.23,4,TxWx,2013-07-01 23:03:00,
2013-07-01 19:08:00,62.3,62.3,30.06,North,8,1.1,1.1,100,0.00,,,0.23,5,TxWx,2013-07-01 23:08:00,
2013-07-01 19:13:00,62.4,62.4,30.06,North,8,0.0,1.0,100,0.00,,,0.24,7,TxWx,2013-07-01 23:13:00,
2013-07-01 19:18:00,62.5,62.5,30.06,North,5,0.0,0.0,100,0.00,,,0.25,9,TxWx,2013-07-01 23:18:00,
2013-07-01 19:23:00,62.3,62.3,30.06,West,279,0.0,1.0,100,0.00,,,0.26,12,TxWx,2013-07-01 23:23:00,
2013-07-01 19:28:00,62.5,62.5,30.06,NE,53,0.0,1.0,100,0.00,,,0.27,14,TxWx,2013-07-01 23:28:00,
2013-07-01 19:33:00,62.4,62.4,30.07,NNW,348,2.4,2.4,100,0.00,,,0.27,16,TxWx,2013-07-01 23:33:00,
2013-07-01 19:38:00,62.6,62.6,30.07,North,8,1.1,1.1,100,0.00,,,0.28,31,TxWx,2013-07-01 23:38:00,
2013-07-01 19:43:00,62.6,62.6,30.07,North,8,0.0,1.0,100,0.00,,,0.29,40,TxWx,2013-07-01 23:43:00,
2013-07-01 19:48:00,62.3,62.3,30.07,North,349,2.4,2.4,100,0.00,,,0.29,21,TxWx,2013-07-01 23:48:00,
2013-07-01 19:53:00,62.5,62.5,30.07,NNW,344,0.0,0.0,100,0.00,,,0.30,13,TxWx,2013-07-01 23:53:00,
2013-07-01 19:58:00,62.7,62.7,30.07,North,2,0.0,0.0,100,0.00,,,0.31,14,TxWx,2013-07-01 23:58:00,
2013-07-01 20:03:00,62.6,62.6,30.07,NNW,331,0.0,0.0,100,0.00,,,0.31,18,TxWx,2013-07-02 00:03:00,
2013-07-01 20:08:00,62.6,62.6,30.07,NNW,331,0.0,0.0,100,0.00,,,0.32,21,TxWx,2013-07-02 00:08:00,
2013-07-01 20:13:00,62.6,62.6,30.08,NNW,331,0.0,0.0,100,0.00,,,0.33,13,TxWx,2013-07-02 00:13:00,
2013-07-01 20:18:00,62.8,62.8,30.08,NNW,331,0.0,0.0,100,0.00,,,0.33,7,TxWx,2013-07-02 00:18:00,
2013-07-01 20:23:00,62.8,62.8,30.08,NNW,331,0.0,0.0,100,0.00,,,0.34,6,TxWx,2013-07-02 00:23:00,
2013-07-01 20:28:00,62.7,62.7,30.08,NNW,331,0.0,0.0,100,0.00,,,0.35,7,TxWx,2013-07-02 00:28:00,
2013-07-01 20:33:00,62.7,62.7,30.07,NNW,330,0.0,0.0,100,0.00,,,0.35,10,TxWx,2013-07-02 00:33:00,
2013-07-01 20:38:00,62.7,62.7,30.07,North,358,0.0,0.0,100,0.00,,,0.35,5,TxWx,2013-07-02 00:38:00,
2013-07-01 20:43:00,62.5,62.5,30.07,North,3,0.0,0.0,100,0.00,,,0.36,3,TxWx,2013-07-02 00:43:00,
2013-07-01 20:48:00,62.4,62.4,30.07,North,7,0.0,0.0,100,0.00,,,0.37,1,TxWx,2013-07-02 00:48:00,
2013-07-01 20:53:00,62.4,62.4,30.07,North,7,0.0,0.0,100,0.00,,,0.37,1,TxWx,2013-07-02 00:53:00,
2013-07-01 20:58:00,62.4,62.4,30.07,North,7,0.0,0.0,100,0.00,,,0.37,1,TxWx,2013-07-02 00:58:00,
2013-07-01 21:03:00,62.4,62.4,30.07,North,7,0.0,0.0,100,0.00,,,0.38,0,TxWx,2013-07-02 01:03:00,
2013-07-01 21:08:00,62.3,62.3,30.07,North,7,0.0,0.0,100,0.00,,,0.38,0,TxWx,2013-07-02 01:08:00,
2013-07-01 21:13:00,62.2,62.2,30.07,North,7,0.0,0.0,100,0.00,,,0.39,0,TxWx,2013-07-02 01:13:00,
2013-07-01 21:18:00,62.2,62.2,30.07,North,7,0.0,0.0,100,0.00,,,0.39,0,TxWx,2013-07-02 01:18:00,
2013-07-01 21:23:00,62.1,62.1,30.07,North,4,0.0,0.0,100,0.00,,,0.39,0,TxWx,2013-07-02 01:23:00,
2013-07-01 21:28:00,62.1,62.1,30.08,North,4,0.0,0.0,100,0.00,,,0.40,0,TxWx,2013-07-02 01:28:00,
2013-07-01 21:33:00,62.0,62.0,30.08,North,4,0.0,0.0,100,0.00,,,0.40,0,TxWx,2013-07-02 01:33:00,
2013-07-01 21:38:00,62.0,62.0,30.08,North,4,0.0,0.0,100,0.00,,,0.41,0,TxWx,2013-07-02 01:38:00,
2013-07-01 21:43:00,62.0,62.0,30.08,North,4,0.0,0.0,100,0.00,,,0.41,0,TxWx,2013-07-02 01:43:00,
2013-07-01 21:48:00,62.0,62.0,30.08,North,356,0.0,0.0,100,0.00,,,0.41,0,TxWx,2013-07-02 01:48:00,
2013-07-01 21:53:00,62.0,62.0,30.08,North,356,0.0,0.0,100,0.00,,,0.42,0,TxWx,2013-07-02 01:53:00,
2013-07-01 21:58:00,62.0,62.0,30.08,North,356,0.0,0.0,100,0.00,,,0.42,0,TxWx,2013-07-02 01:58:00,
2013-07-01 22:03:00,62.0,62.0,30.08,North,356,0.0,0.0,100,0.00,,,0.42,0,TxWx,2013-07-02 02:03:00,
2013-07-01 22:08:00,62.1,62.1,30.08,North,356,0.0,0.0,100,0.00,,,0.43,0,TxWx,2013-07-02 02:08:00,
2013-07-01 22:13:00,62.1,62.1,30.08,North,356,0.0,0.0,100,0.00,,,0.43,0,TxWx,2013-07-02 02:13:00,
2013-07-01 22:18:00,62.0,62.0,30.09,North,355,0.0,0.0,100,0.00,,,0.43,0,TxWx,2013-07-02 02:18:00,
2013-07-01 22:23:00,62.0,62.0,30.09,North,355,0.0,0.0,100,0.00,,,0.43,0,TxWx,2013-07-02 02:23:00,
2013-07-01 22:28:00,61.9,61.9,30.09,North,355,0.0,0.0,100,0.00,,,0.43,0,TxWx,2013-07-02 02:28:00,
2013-07-01 22:33:00,61.7,61.7,30.09,North,355,0.0,0.0,100,0.00,,,0.44,0,TxWx,2013-07-02 02:33:00,
2013-07-01 22:38:00,61.5,61.5,30.09,North,349,0.0,0.0,100,0.00,,,0.44,0,TxWx,2013-07-02 02:38:00,
2013-07-01 22:43:00,61.5,61.5,30.09,North,349,0.0,0.0,100,0.00,,,0.44,0,TxWx,2013-07-02 02:43:00,
2013-07-01 22:48:00,61.4,61.4,30.09,North,349,0.0,0.0,100,0.00,,,0.45,0,TxWx,2013-07-02 02:48:00,
2013-07-01 22:53:00,61.5,61.5,30.09,North,349,0.0,0.0,100,0.00,,,0.45,0,TxWx,2013-07-02 02:53:00,
2013-07-01 22:58:00,61.5,61.5,30.09,NNW,348,0.0,0.0,100,0.00,,,0.45,0,TxWx,2013-07-02 02:58:00,
2013-07-01 23:03:00,61.6,61.6,30.09,NNW,348,0.0,0.0,100,0.00,,,0.45,0,TxWx,2013-07-02 03:03:00,
2013-07-01 23:08:00,61.6,61.6,30.09,NNW,348,0.0,0.0,100,0.00,,,0.45,0,TxWx,2013-07-02 03:08:00,
2013-07-01 23:13:00,61.6,61.6,30.09,NNW,348,0.0,0.0,100,0.00,,,0.45,0,TxWx,2013-07-02 03:13:00,
2013-07-01 23:18:00,61.6,61.6,30.09,NNW,348,0.0,0.0,100,0.00,,,0.45,0,TxWx,2013-07-02 03:18:00,
2013-07-01 23:23:00,61.4,61.4,30.09,North,2,0.0,0.0,100,0.00,,,0.45,0,TxWx,2013-07-02 03:23:00,
2013-07-01 23:28:00,61.0,61.0,30.09,North,2,0.0,0.0,100,0.00,,,0.45,0,TxWx,2013-07-02 03:28:00,
2013-07-01 23:33:00,60.9,60.9,30.09,North,2,0.0,0.0,100,0.00,,,0.45,0,TxWx,2013-07-02 03:33:00,
2013-07-01 23:38:00,60.7,60.7,30.09,North,355,0.0,0.0,100,0.00,,,0.45,0,TxWx,2013-07-02 03:38:00,
2013-07-01 23:43:00,60.7,60.7,30.09,WNW,287,0.0,0.0,100,0.00,,,0.45,0,TxWx,2013-07-02 03:43:00,
2013-07-01 23:48:00,60.5,60.5,30.09,West,273,0.0,0.0,100,0.00,,,0.45,0,TxWx,2013-07-02 03:48:00,
2013-07-01 23:53:00,60.5,60.5,30.09,West,273,0.0,0.0,100,0.00,,,0.45,0,TxWx,2013-07-02 03:53:00,
2013-07-01 23:58:00,60.4,60.4,30.08,West,274,0.0,0.0,100,0.00,,,0.45,0,TxWx,2013-07-02 03:58:00,